CAPE
7 27 27 50 51 69 0 0 2 6 19 0 0 0 2 0 0 0 0 0 0 0 0 0 0 0 0 0 0 0 0 0 0 0 0 0 0 0 0 0 0 0 0 0 0
9 91 118 81 75 75 9 0 5 6 30 1 2 0 9 0 0 0 0 0 0 0 0 0 0 0 0 0 0 0 0 0 0 0 0 0 0 0 0 0 0 0 0 0 0
0 97 170 69 74 80 18 2 0 24 10 7 0 2 5 0 0 0 0 0 0 0 0 0 0 0 0 0 0 0 0 0 0 0 0 0 0 0 0 0 0 0 0 0 0
0 2 39 76 17 60 54 20 1 28 31 50 10 5 0 1 2 0 0 0 0 0 0 0 0 0 0 0 0 0 0 0 0 0 0 0 0 0 0 0 0 0 0 0 0
0 0 31 30 11 5 44 0 12 9 17 63 7 1 1 2 0 0 0 0 0 0 0 0 0 0 0 0 0 0 0 0 0 0 0 0 0 0 0 0 0 0 0 0 0
0 0 0 12 0 0 40 50 11 0 44 62 3 2 2 1 0 0 0 0 0 0 0 0 0 0 0 0 0 0 0 0 0 0 0 0 0 0 0 0 0 0 0 0 0
0 0 0 0 9 4 24 37 31 0 32 75 2 19 26 12 0 0 0 0 0 0 0 0 0 0 0 0 0 0 0 0 0 0 0 0 0 0 0 0 0 0 0 0 0
2 0 0 0 1 19 27 37 5 0 22 84 36 15 24 0 0 0 0 0 0 0 0 0 0 0 0 0 0 0 0 0 0 0 0 0 0 0 0 0 0 0 0 0 0
0 0 0 0 0 11 19 24 27 0 86 5 1 27 0 1 1 0 0 0 0 0 0 0 0 0 0 0 0 0 0 0 0 0 0 0 0 0 0 0 0 0 0 0 0
0 0 0 0 0 1 0 20 4 2 122 1 0 4 2 0 0 0 0 0 0 0 0 0 0 0 0 0 0 0 0 0 0 0 0 0 0 0 0 0 0 0 0 0 0
0 0 1 7 0 0 0 33 19 14 1 1 0 0 0 0 0 0 0 0 0 0 0 0 0 0 0 0 0 0 0 0 0 0 0 0 0 0 0 0 0 0 0 0 0
0 0 6 7 11 24 24 21 3 2 1 0 0 0 0 0 0 1 0 0 0 0 0 0 0 0 0 0 0 0 0 0 0 0 0 0 0 0 0 0 0 0 0 0 0
0 4 7 10 20 10 17 12 39 0 0 0 0 0 0 0 0 0 0 0 0 0 0 0 0 0 0 0 0 0 0 0 0 0 0 0 0 0 0 0 0 0 0 0 0
6 1 0 17 14 0 0 7 1 1 1 0 1 0 0 0 0 0 0 0 0 0 0 0 0 0 0 0 0 0 0 0 0 0 0 0 0 0 0 0 0 0 0 0 0
5 3 0 16 1 0 0 0 3 4 0 0 0 0 0 0 0 0 0 0 0 0 0 0 0 0 0 0 0 0 0 0 0 0 0 0 0 0 0 0 0 0 0 0 0
5 0 0 9 1 17 20 11 46 2 0 1 0 0 0 0 0 0 0 0 0 0 0 0 0 0 0 0 0 0 0 0 0 0 0 0 0 0 0 0 0 0 0 0 0
7 0 1 5 0 3 21 28 0 0 0 0 1 1 1 0 0 0 0 0 0 0 0 0 0 0 0 0 0 0 0 0 0 0 0 0 0 0 0 0 0 0 0 0 0
4 0 11 10 7 28 59 0 0 0 1 1 1 2 1 0 0 0 0 0 0 0 0 0 0 0 0 0 0 0 0 0 0 0 0 0 0 0 0 0 0 0 0 0 0
5 7 5 0 3 37 18 0 0 0 0 1 1 1 1 0 0 0 0 0 0 0 0 0 0 0 0 0 0 0 0 0 0 0 0 0 0 0 0 0 0 0 0 0 0
5 11 0 0 3 35 9 0 2 1 0 1 0 0 0 0 0 0 0 0 0 0 0 0 0 0 0 0 0 0 0 0 0 0 0 0 0 0 0 0 0 0 0 0 0
3 1 0 0 21 24 1 0 1 0 0 0 0 0 0 0 0 0 0 0 0 0 0 0 0 0 0 0 0 0 0 0 0 0 0 0 0 0 0 0 0 0 0 0 0
1 0 0 27 10 0 0 0 3 0 0 0 0 0 0 0 0 0 0 0 0 0 0 0 0 0 0 0 0 0 0 0 0 0 0 0 0 0 0 0 0 0 0 0 0
4 1 1 24 2 2 5 2 2 0 0 0 0 0 0 0 0 0 0 0 0 0 0 0 0 0 0 0 0 0 0 0 0 0 0 0 0 0 0 0 0 0 0 0 0
6 1 0 39 2 0 0 0 0 0 0 0 0 0 0 0 0 0 0 0 0 0 0 0 0 0 0 0 0 0 0 0 0 0 0 0 0 0 0 0 0 0 0 0 0
0 0 1 0 0 1 0 0 0 0 0 0 0 0 0 0 0 0 0 0 0 0 0 0 0 0 0 0 0 0 0 0 0 0 0 0 0 0 0 0 0 0 0 0 0
0 0 1 0 0 1 13 2 0 0 0 0 0 0 0 0 0 0 0 0 0 0 0 0 0 0 0 0 0 0 0 0 0 0 0 0 0 0 0 0 0 0 0 0 0
1 0 0 1 0 0 3 3 0 0 0 0 0 0 0 0 0 0 0 0 0 0 0 0 0 0 0 0 0 0 0 0 0 0 0 0 0 0 0 0 0 0 0 0 0
CIN
0 -7 -14 -2 -23 -19 0 0 -6 -13 -1 0 0 0 -6 0 0 0 0 0 0 0 0 0 0 0 0 0 0 0 0 0 0 0 0 0 0 0 0 0 0 0 0 0 0
-3 -1 0 -1 -3 -6 -29 0 -8 -7 -1 -2 0 0 0 0 0 0 0 0 0 0 0 0 0 0 0 0 0 0 0 0 0 0 0 0 0 0 0 0 0 0 0 0 0
0 -5 0 -3 -14 -1 -16 -18 0 -4 -16 -3 0 0 -1 0 0 0 0 0 0 0 0 0 0 0 0 0 0 0 0 0 0 0 0 0 0 0 0 0 0 0 0 0 0
0 -27 -35 -14 -33 -5 -7 -3 -14 -2 -11 -1 -5 0 0 -5 0 0 0 0 0 0 0 0 0 0 0 0 0 0 0 0 0 0 0 0 0 0 0 0 0 0 0 0 0
0 0 -43 -64 -47 -25 -6 0 -11 -13 -5 0 -29 0 0 0 0 0 0 0 0 0 0 0 0 0 0 0 0 0 0 0 0 0 0 0 0 0 0 0 0 0 0 0 0
0 0 0 -77 -16 0 -1 0 -7 0 -3 -1 -4 -38 0 0 0 0 0 0 0 0 0 0 0 0 0 0 0 0 0 0 0 0 0 0 0 0 0 0 0 0 0 0 0
0 0 0 0 -50 -16 -16 0 0 0 -8 -3 -2 -109 0 -7 0 0 0 0 0 0 0 0 0 0 0 0 0 0 0 0 0 0 0 0 0 0 0 0 0 0 0 0 0
0 0 0 0 -10 -21 -25 -1 -5 0 -10 -1 -60 -58 -4 0 0 0 0 0 0 0 0 0 0 0 0 0 0 0 0 0 0 0 0 0 0 0 0 0 0 0 0 0 0
0 0 0 0 0 -25 -31 0 0 0 0 0 0 -42 -3 0 0 0 0 0 0 0 0 0 0 0 0 0 0 0 0 0 0 0 0 0 0 0 0 0 0 0 0 0 0
0 0 0 0 0 -1 -13 0 -9 0 -4 0 0 -54 0 0 0 0 0 0 0 0 0 0 0 0 0 0 0 0 0 0 0 0 0 0 0 0 0 0 0 0 0 0 0
0 0 0 0 0 0 0 0 0 0 0 -58 0 0 0 0 0 0 0 0 0 0 0 0 0 0 0 0 0 0 0 0 0 0 0 0 0 0 0 0 0 0 0 0 0
0 0 0 0 -1 0 -7 -1 -1 0 0 0 0 0 0 0 0 0 0 0 0 0 0 0 0 0 0 0 0 0 0 0 0 0 0 0 0 0 0 0 0 0 0 0 0
0 -2 0 -2 -3 -3 -4 -4 -2 0 0 0 0 0 0 0 0 0 0 0 0 0 0 0 0 0 0 0 0 0 0 0 0 0 0 0 0 0 0 0 0 0 0 0 0
0 0 0 -3 -2 0 -1 -6 -9 0 0 0 0 0 0 0 0 0 0 0 0 0 0 0 0 0 0 0 0 0 0 0 0 0 0 0 0 0 0 0 0 0 0 0 0
-2 0 0 0 -2 0 0 -2 -1 0 0 0 0 0 0 0 0 0 0 0 0 0 0 0 0 0 0 0 0 0 0 0 0 0 0 0 0 0 0 0 0 0 0 0 0
-1 0 0 0 -3 -6 -18 -17 0 -2 0 0 0 0 0 0 0 0 0 0 0 0 0 0 0 0 0 0 0 0 0 0 0 0 0 0 0 0 0 0 0 0 0 0 0
-1 0 0 -1 0 -8 -13 0 0 0 0 0 0 0 0 0 0 0 0 0 0 0 0 0 0 0 0 0 0 0 0 0 0 0 0 0 0 0 0 0 0 0 0 0 0
-3 0 0 -1 -5 -30 -4 0 0 0 0 0 0 0 0 0 0 0 0 0 0 0 0 0 0 0 0 0 0 0 0 0 0 0 0 0 0 0 0 0 0 0 0 0 0
-3 -2 -3 0 -8 -36 -3 0 0 0 0 0 0 0 0 0 0 0 0 0 0 0 0 0 0 0 0 0 0 0 0 0 0 0 0 0 0 0 0 0 0 0 0 0 0
-3 0 0 0 -27 -6 -3 0 -3 0 0 0 0 0 0 0 0 0 0 0 0 0 0 0 0 0 0 0 0 0 0 0 0 0 0 0 0 0 0 0 0 0 0 0 0
-2 -1 0 0 -18 -1 -1 0 -1 0 0 0 0 0 0 0 0 0 0 0 0 0 0 0 0 0 0 0 0 0 0 0 0 0 0 0 0 0 0 0 0 0 0 0 0
-3 0 0 -38 0 0 0 0 -13 0 0 0 0 0 0 0 0 0 0 0 0 0 0 0 0 0 0 0 0 0 0 0 0 0 0 0 0 0 0 0 0 0 0 0 0
-2 -1 -7 -18 -1 0 -4 -1 -2 0 0 0 0 0 0 0 0 0 0 0 0 0 0 0 0 0 0 0 0 0 0 0 0 0 0 0 0 0 0 0 0 0 0 0 0
-5 -2 0 -2 -1 -13 0 0 -1 0 0 0 0 0 0 0 0 0 0 0 0 0 0 0 0 0 0 0 0 0 0 0 0 0 0 0 0 0 0 0 0 0 0 0 0
0 0 -3 0 0 -2 0 0 0 0 0 0 0 0 0 0 0 0 0 0 0 0 0 0 0 0 0 0 0 0 0 0 0 0 0 0 0 0 0 0 0 0 0 0 0
0 0 0 0 0 -12 -1 -1 0 0 0 0 0 0 0 0 0 0 0 0 0 0 0 0 0 0 0 0 0 0 0 0 0 0 0 0 0 0 0 0 0 0 0 0 0
0 0 0 0 -1 0 0 -1 0 0 0 0 0 0 0 0 0 0 0 0 0 0 0 0 0 0 0 0 0 0 0 0 0 0 0 0 0 0 0 0 0 0 0 0 0
Wind_Speed
21 23 33 38 42 43 42 41 41 40 40 39 36 36 32 31 32 36 43 35 31 25 20 19 18 19 17 19 17 16 20 21 19 17 17 7 7 16 15 10 14 14 12 16 15
23 21 29 37 40 43 43 43 42 41 41 40 38 34 30 31 36 45 37 33 25 23 24 24 22 21 21 20 19 20 22 21 18 16 15 9 10 5 12 12 17 16 13 4 13
23 21 27 36 40 43 42 42 41 42 41 42 39 34 29 25 40 44 40 34 27 22 23 19 21 21 24 21 21 21 24 19 19 17 16 10 12 13 8 12 15 7 6 4 10
23 22 24 32 38 42 42 38 41 42 39 42 39 27 22 29 47 33 32 37 29 22 20 25 26 26 25 26 23 22 20 18 17 16 16 17 14 16 14 17 21 15 2 6 10
21 21 23 31 34 36 40 42 42 40 41 43 34 28 27 35 41 28 30 33 29 26 29 28 30 28 30 28 25 25 21 20 20 20 18 15 19 18 18 21 19 9 6 4 8
20 21 26 31 33 35 37 39 41 41 42 45 39 29 31 44 29 27 31 33 33 31 28 24 26 21 26 27 26 25 22 19 21 21 20 20 21 19 22 17 17 11 8 7 6
20 20 28 33 34 38 38 42 39 41 44 46 36 33 37 38 23 30 28 32 35 34 29 27 17 24 18 25 29 25 23 24 24 23 23 19 24 25 21 15 16 17 14 11 8
21 21 28 36 36 38 40 40 39 40 46 42 32 41 39 26 22 27 26 33 32 30 32 24 20 24 24 16 22 21 23 23 25 22 22 21 30 23 19 14 13 16 15 13 11
20 22 32 37 37 35 37 38 34 38 42 31 35 40 36 24 26 27 25 30 34 28 25 23 23 27 22 22 20 22 25 26 25 24 19 20 26 22 19 17 16 14 15 14 13
20 23 35 38 38 37 35 38 35 36 39 32 34 41 32 34 24 21 21 22 27 32 27 29 29 32 30 28 29 22 23 27 28 24 24 22 28 22 21 20 20 17 16 15 13
19 23 36 36 36 37 36 32 36 40 43 50 52 48 38 26 22 21 21 21 25 33 37 33 36 38 33 29 25 26 23 25 25 23 26 29 26 30 24 23 23 22 19 19 17
19 24 32 36 35 35 38 36 43 30 42 42 45 41 35 27 30 24 22 25 31 37 29 32 41 36 29 26 23 25 27 26 23 23 27 29 38 34 22 23 19 21 21 21 22
19 24 32 33 33 34 41 45 31 33 36 45 44 47 43 34 36 35 27 26 32 36 35 38 35 29 29 28 27 28 28 27 28 24 26 29 39 38 33 30 32 31 27 26 21
19 26 30 31 34 36 42 40 40 38 38 45 50 42 40 34 36 32 31 27 30 34 36 30 29 31 30 30 27 28 24 24 26 27 33 27 38 35 31 30 29 45 28 22 18
20 25 30 35 33 40 37 37 40 32 56 34 44 33 42 44 37 38 37 29 30 28 28 34 32 32 33 30 25 28 22 22 24 26 29 27 30 32 29 20 22 18 17 19 19
22 25 30 36 40 34 30 37 35 41 49 39 38 44 47 45 43 38 38 29 26 29 26 25 24 28 29 27 26 17 19 19 21 25 36 32 29 29 22 22 26 34 24 19 17
24 27 32 32 42 35 34 35 41 45 30 34 45 47 48 51 46 48 43 38 37 38 34 31 28 27 25 28 26 26 22 27 30 31 34 23 27 34 24 21 23 22 20 19 18
25 28 30 34 32 31 34 37 46 39 41 27 36 45 48 49 49 50 46 44 36 30 33 33 35 28 28 30 29 28 25 26 31 32 32 25 32 29 27 35 34 27 21 23 21
24 29 34 35 34 37 37 47 39 38 37 32 35 45 45 45 44 47 54 54 43 38 34 39 34 28 26 26 26 31 33 26 22 25 29 29 32 36 33 31 26 25 25 21 19
24 31 38 30 32 36 44 44 38 31 32 37 37 39 46 45 46 50 55 54 47 44 32 33 36 29 28 24 26 27 24 31 31 32 35 31 32 29 23 21 25 27 28 27 18
23 34 31 24 27 40 53 44 38 34 34 38 36 35 37 45 45 50 53 49 49 43 38 33 33 34 27 34 33 28 32 29 27 28 32 34 30 26 26 28 27 26 25 23 22
28 39 27 18 41 44 57 37 35 37 38 35 35 35 41 40 41 44 48 38 41 38 41 32 34 38 37 31 30 33 35 33 36 35 34 30 32 19 19 22 21 24 25 25 20
35 35 27 29 50 51 42 49 35 40 42 36 39 37 36 38 38 41 36 31 33 35 37 28 29 37 35 31 30 36 32 31 33 32 38 38 38 26 29 28 26 26 23 21 16
31 36 35 37 43 47 48 45 44 42 43 38 36 33 35 36 32 41 37 36 27 30 30 26 25 33 40 37 25 30 30 29 30 37 37 43 42 38 29 23 21 24 21 20 16
31 37 31 44 47 48 47 43 48 44 47 39 33 33 36 37 33 32 32 34 35 36 33 32 37 34 29 25 23 27 27 27 31 36 34 34 48 43 38 39 34 29 23 18 13
32 35 32 39 37 46 47 48 50 46 45 52 41 33 31 35 38 37 31 30 34 30 31 30 34 35 38 33 31 32 27 28 29 33 38 42 53 32 29 28 33 31 27 20 15
28 27 32 38 38 41 46 48 50 48 53 56 37 32 32 32 31 26 28 27 26 30 31 31 33 34 45 29 28 39 34 31 35 38 37 45 55 31 31 31 30 28 24 25 21
Wind_Direction
292 290 283 275 264 257 254 251 249 247 241 237 238 238 238 240 237 235 234 239 239 246 250 251 259 256 262 261 268 271 261 254 254 254 257 252 239 245 254 265 258 263 279 256 116
299 288 284 275 264 256 251 248 249 245 241 235 233 237 238 240 236 234 237 239 237 240 241 245 247 249 251 255 261 259 257 257 257 260 261 247 250 233 261 264 260 261 272 301 119
302 292 284 275 263 256 248 246 248 243 240 233 234 235 242 239 234 234 234 239 239 240 244 242 248 249 244 251 254 257 256 260 256 260 262 256 254 257 260 267 267 270 270 115 133
300 297 288 273 262 255 244 245 246 241 239 231 230 231 232 234 229 235 240 234 232 232 239 238 242 241 241 245 251 256 258 257 257 262 263 258 256 258 257 267 262 267 244 139 145
294 297 289 270 263 257 247 242 243 244 238 227 223 223 236 238 234 242 240 232 228 227 231 233 236 242 240 246 248 249 256 257 257 259 264 265 258 260 260 262 268 271 256 192 161
288 289 281 268 262 255 250 241 240 241 237 224 220 219 236 235 244 243 239 228 225 225 229 228 234 236 240 243 245 250 255 259 259 259 263 264 262 257 262 263 265 265 263 248 190
279 283 275 264 260 247 247 241 240 240 236 227 217 221 237 234 242 235 242 231 227 225 225 232 231 237 244 248 245 251 254 257 257 259 260 266 261 255 262 262 265 263 265 263 253
274 274 270 254 250 250 244 242 240 243 233 225 213 225 239 245 247 237 240 230 225 230 228 232 232 238 241 247 242 248 254 254 259 258 263 259 257 259 259 260 261 263 263 264 260
271 270 262 250 247 250 247 240 241 238 227 206 221 224 234 245 235 236 238 226 224 229 226 226 229 234 241 237 250 251 253 251 256 255 265 260 260 264 260 261 262 261 263 261 259
268 269 254 247 247 244 242 237 236 243 211 220 224 221 231 232 226 229 238 228 223 223 218 222 228 231 234 233 236 246 249 252 252 258 257 260 258 266 263 261 263 263 262 259 254
264 266 249 246 248 244 236 232 231 225 211 219 219 225 226 232 229 237 229 221 224 218 216 220 225 227 230 236 244 245 251 255 260 264 257 256 263 260 265 264 263 264 263 261 259
257 262 250 244 248 248 233 231 226 236 214 225 221 225 223 219 226 226 218 224 221 215 226 221 228 231 231 235 240 245 250 255 266 263 261 264 256 261 267 265 263 263 263 262 262
251 256 246 246 247 244 229 226 240 226 223 223 221 222 218 221 227 221 219 225 221 218 222 223 228 224 228 233 237 247 251 254 259 266 268 270 264 261 264 265 261 260 264 264 261
247 251 246 243 243 235 227 231 230 226 223 220 219 222 216 218 229 220 218 221 227 223 221 229 227 223 228 233 239 245 253 257 260 264 263 269 268 266 264 263 261 224 261 263 253
242 248 243 234 239 227 229 230 226 225 223 220 214 216 214 214 210 217 216 225 221 220 223 230 223 222 230 233 238 249 253 258 263 264 268 269 274 275 266 253 253 236 239 253 261
238 244 241 236 234 233 231 223 219 225 226 220 212 211 208 215 214 209 217 227 227 221 230 235 237 233 236 237 238 241 249 263 267 267 263 265 267 277 273 268 264 262 258 245 233
235 242 238 238 231 236 233 222 221 227 217 220 210 205 208 212 214 210 210 214 221 225 229 232 238 240 234 230 236 238 238 253 256 258 261 275 267 265 278 287 280 271 253 249 244
234 240 241 238 240 235 229 228 224 225 213 219 203 198 213 208 217 215 213 216 221 225 216 224 232 232 234 234 232 232 233 249 255 259 266 273 269 275 279 272 277 284 284 278 264
233 239 238 239 233 228 225 224 226 221 214 206 195 199 212 212 215 215 219 218 224 221 227 228 237 235 236 237 228 237 240 246 268 271 270 271 276 278 279 282 286 281 283 281 284
232 236 236 243 233 227 224 226 230 224 211 198 208 211 209 211 212 218 219 225 227 229 234 234 235 240 237 237 242 243 237 244 255 263 266 274 279 277 291 294 290 287 282 281 285
232 232 239 240 228 222 220 227 228 227 210 209 209 212 209 206 213 214 217 228 225 225 231 229 238 238 235 239 234 240 240 250 252 264 268 273 280 284 287 291 292 292 293 291 286
230 228 240 223 219 220 218 224 227 222 219 220 218 220 207 208 217 220 221 237 218 219 227 235 242 240 242 252 246 246 247 243 251 260 262 272 272 289 300 307 314 297 299 299 290
226 231 244 227 219 217 223 225 232 218 216 216 218 222 214 213 222 222 225 228 208 218 221 228 244 239 245 252 250 246 250 248 253 262 260 262 267 274 286 296 307 309 308 305 304
227 227 232 230 227 220 221 221 222 220 218 220 217 214 208 214 231 222 225 224 225 223 223 231 244 243 241 250 242 246 242 246 248 255 260 260 265 265 277 289 316 325 314 309 301
229 228 230 223 225 222 220 221 220 220 221 219 214 210 212 220 225 224 226 227 229 226 229 232 239 247 253 257 250 251 246 243 246 255 256 238 263 265 268 274 288 302 313 309 305
227 227 231 226 226 221 220 220 217 216 213 212 216 207 210 217 218 222 220 223 224 226 227 238 243 243 252 260 259 257 249 245 244 251 259 265 264 275 278 279 284 287 284 292 298
235 236 232 224 224 218 218 218 218 215 213 212 215 213 219 229 226 231 232 231 230 224 230 235 242 245 249 259 261 259 242 240 255 257 255 262 251 280 281 279 281 284 278 276 284